Home   Weather   Barrie   Past weeks
Flag for Canada

Past Weather in Barrie, Ontario, Canada — Yesterday and Last 2 Weeks

Now
48 °F

Passing clouds.


Feels Like: 48 °F
Forecast: 70 / 51 °F
Wind: No wind

Location: Borden

Current Time: Aug 23, 2019 at 3:01:21 am

Latest Report: Aug 23, 2019 at 2:00 am


Visibility: 9 mi

Pressure: 30.06 "Hg

Humidity: 100%

Dew Point: 48 °F

Location of BarrieLocation

Past Weather in Barrie — Graph

°F

Barrie Temperature Yesterday

Maximum temperature yesterday: 70 °F (at 1:00 pm)
Minimum temperature yesterday: 54 °F (at 10:00 pm)
Average temperature yesterday: 64 °F

High & Low Weather Summary for the Past Weeks

 TemperatureHumidityPressure
High88 °F (Aug 18, 5:00 pm)100% (Aug 11, 6:00 am)30.09 "Hg (Aug 11, 6:00 am)
Low43 °F (Aug 15, 5:02 am)33% (Aug 11, 3:00 pm)29.61 "Hg (Aug 8, 2:00 pm)
Average66 °F75%29.90 "Hg
* Reported Aug 8 1:00 am — Aug 23 1:00 am, Barrie. Weather by CustomWeather, © 2019

Note: Actual official high and low records may vary slightly from our data, if they occured in-between our weather recording intervals... More about our weather records

Advertising

Barrie Weather History for the Previous 24 Hours

Scroll right to see more
 ConditionsComfort  
Time TempWeatherWind HumidityBarometerVisibility
1:00 am
Fri, Aug 23
50 °FPassing clouds.No wind94%30.04 "Hg9 mi
12:00 am54 °FPassing clouds.2 mph94%30.03 "Hg9 mi
11:00 pm
Thu, Aug 22
54 °FClear.3 mph94%30.02 "Hg9 mi
10:00 pm54 °FClear.3 mph88%30.02 "Hg9 mi
9:00 pm57 °FClear.2 mph82%30.01 "Hg9 mi
8:00 pm63 °FSunny.6 mph68%29.99 "Hg9 mi
7:00 pm66 °FSunny.9 mph60%29.97 "Hg9 mi
6:00 pm68 °FPassing clouds.10 mph56%29.97 "Hg9 mi
5:00 pm70 °FPassing clouds.14 mph57%29.97 "Hg9 mi
4:00 pm70 °FPassing clouds.10 mph57%29.96 "Hg9 mi
3:00 pm70 °FPassing clouds.9 mph57%29.96 "Hg9 mi
2:00 pm70 °FMore clouds than sun.8 mph57%29.96 "Hg9 mi
1:00 pm70 °FPartly sunny.3 mph57%29.96 "Hg9 mi
12:00 pm68 °FPartly sunny.9 mph56%29.96 "Hg9 mi
11:00 am68 °FPartly sunny.8 mph53%29.95 "Hg9 mi
10:00 am66 °FSunny.9 mph64%29.93 "Hg9 mi
9:00 am64 °FSunny.10 mph68%29.93 "Hg9 mi
8:00 am61 °FPassing clouds.9 mph77%29.93 "Hg9 mi
7:00 am59 °FSunny.8 mph77%29.92 "Hg9 mi
6:00 am59 °FClear.3 mph77%29.90 "Hg9 mi
5:00 am61 °FClear.6 mph72%29.89 "Hg9 mi
4:00 am61 °FClear.3 mph72%29.86 "Hg9 mi
3:00 am61 °FClear.6 mph68%29.86 "Hg9 mi
Weather by CustomWeather, © 2019

See weather overview